Darstellungsparameter: Aktuell verwendete Einstellungen:
Skalierung der Graphiken ... ?
xyx+y,   Skalierungsfaktor:      Skalierung: Modus: x, Faktor: 1
Darstellungszeitraum ... ?
Vom - - bis: - -   Zeitraum: 25.12.2010 - 29.12.2010
Min/Max/Avg-Anzeige ... ?
Zeige MMA aktuell
Zeige MMA Monat
Zeige MMA alles
Zeige --A aktuell
Zeige --A Monat
Zeige --A alles
Keine MMA-Anzeige
MMA:
Average (ber die Originaldaten)
MMA-Basis: 25.12.2010 - 29.12.2010
Quicknavigation für Darstellung... ?
Tage:      1T, 2T, 3T, 5T -1T -2T -3T -5T +1T +2T +3T +5T
Wochen: 1W, 2W, 3W -1W -2W -3W +1W +2W +3W
Monate: 1M, 3M, 6M -1M -3M -6M +1M +3M +6M
Jahre:    1J, 3J, 5J, 10J -1J -3J -5J -10J +1J +3J +5J +10J
Nutze für die Darstellung ... ?
Originaldaten oder Mittelwerte auf ...
Stundenbasis Tagesbasis Wochenbasis
Monatsbasis Jahresbasis      Datenbasis: Original-Daten
Darstellen als:
Statistik (Auto) Statistik J:M      Darstellung:
Zur Graphik,    zurück zur Übersicht aller Sensoren.
 
Tabellarische Datenbersicht: ?
 
Sensor: Nr:Datum:Temp:Abs-Feuchte:Windchill:Wind:
Aussen-T/F 1 25-12-2010 00:08:02 -3.8 C 2.97 g/m*3 -3.8 C 0 km/h
2 25-12-2010 00:20:02 -3.8 C 2.97 g/m*3 -3.8 C 0 km/h
3 25-12-2010 00:32:02 -3.8 C 2.97 g/m*3 -3.8 C 0 km/h
4 25-12-2010 00:44:03 -3.8 C 2.93 g/m*3 -3.8 C 0 km/h
5 25-12-2010 00:56:03 -3.9 C 2.87 g/m*3 -3.9 C 0 km/h
6 25-12-2010 01:08:03 -3.9 C 2.87 g/m*3 -3.9 C 0 km/h
7 25-12-2010 01:20:03 -3.9 C 2.87 g/m*3 -3.9 C 0 km/h
8 25-12-2010 01:32:03 -3.9 C 2.87 g/m*3 -3.9 C 0 km/h
9 25-12-2010 01:44:03 -3.9 C 2.87 g/m*3 -3.9 C 0 km/h
10 25-12-2010 01:56:03 -4 C 2.89 g/m*3 -4 C 0 km/h
11 25-12-2010 02:08:03 -4.1 C 2.87 g/m*3 -4.1 C 0 km/h
12 25-12-2010 02:20:03 -4.1 C 2.91 g/m*3 -4.1 C 0 km/h
13 25-12-2010 02:32:03 -4.1 C 2.87 g/m*3 -4.1 C 0 km/h
14 25-12-2010 02:44:03 -4.1 C 2.87 g/m*3 -4.1 C 0 km/h
15 25-12-2010 02:56:03 -4 C 2.85 g/m*3 -4 C 0 km/h
16 25-12-2010 03:08:03 -4.1 C 2.83 g/m*3 -4.1 C 0 km/h
17 25-12-2010 03:20:03 -4.1 C 2.83 g/m*3 -4.1 C 0 km/h
18 25-12-2010 03:32:03 -4.2 C 2.81 g/m*3 -4.2 C 0 km/h
19 25-12-2010 03:44:03 -4.2 C 2.81 g/m*3 -4.2 C 0 km/h
20 25-12-2010 03:56:03 -4.2 C 2.78 g/m*3 -4.2 C 0 km/h
21 25-12-2010 04:08:03 -4.2 C 2.74 g/m*3 -4.2 C 0 km/h
22 25-12-2010 04:20:03 -4.2 C 2.7 g/m*3 -4.2 C 0 km/h
23 25-12-2010 04:32:03 -4.2 C 2.67 g/m*3 -4.2 C 0 km/h
24 25-12-2010 04:44:03 -4.3 C 2.65 g/m*3 -4.3 C 0 km/h
25 25-12-2010 04:56:04 -4.4 C 2.63 g/m*3 -4.4 C 0 km/h
Sensor: Nr:Datum:Temp:Abs-Feuchte:Windchill:Wind:
Aussen-T/F 26 25-12-2010 05:08:04 -4.4 C 2.63 g/m*3 -4.4 C 0 km/h
27 25-12-2010 05:20:04 -4.4 C 2.6 g/m*3 -4.4 C 0 km/h
28 25-12-2010 05:32:04 -4.5 C 2.58 g/m*3 -4.5 C 0 km/h
29 25-12-2010 05:44:04 -4.5 C 2.58 g/m*3 -4.5 C 0 km/h
30 25-12-2010 05:56:04 -4.5 C 2.54 g/m*3 -4.5 C 0 km/h
31 25-12-2010 06:08:04 -4.6 C 2.52 g/m*3 -4.6 C 0 km/h
32 25-12-2010 06:20:04 -4.6 C 2.52 g/m*3 -4.6 C 0 km/h
33 25-12-2010 06:32:04 -4.6 C 2.52 g/m*3 -4.6 C 0 km/h
34 25-12-2010 06:44:04 -4.6 C 2.52 g/m*3 -4.6 C 0 km/h
35 25-12-2010 06:56:04 -4.7 C 2.47 g/m*3 -4.7 C 0 km/h
36 25-12-2010 07:08:04 -4.7 C 2.44 g/m*3 -4.7 C 0 km/h
37 25-12-2010 07:20:04 -4.7 C 2.44 g/m*3 -4.7 C 0 km/h
38 25-12-2010 07:32:04 -4.7 C 2.44 g/m*3 -4.7 C 0 km/h
39 25-12-2010 07:44:04 -4.7 C 2.47 g/m*3 -4.7 C 0 km/h
40 25-12-2010 07:56:04 -4.8 C 2.45 g/m*3 -4.8 C 0 km/h
41 25-12-2010 08:08:04 -4.7 C 2.47 g/m*3 -4.7 C 0 km/h
42 25-12-2010 08:20:04 -4.7 C 2.47 g/m*3 -4.7 C 0 km/h
43 25-12-2010 08:32:04 -4.8 C 2.49 g/m*3 -4.8 C 0 km/h
44 25-12-2010 08:44:04 -4.9 C 2.47 g/m*3 -4.9 C 0 km/h
45 25-12-2010 08:56:05 -4.9 C 2.47 g/m*3 -4.9 C 0 km/h
46 25-12-2010 09:08:05 -4.9 C 2.43 g/m*3 -4.9 C 0 km/h
47 25-12-2010 09:20:05 -4.8 C 2.45 g/m*3 -4.8 C 0 km/h
48 25-12-2010 09:32:02 -4.9 C 2.43 g/m*3 -4.9 C 0 km/h
49 25-12-2010 09:44:02 -4.8 C 2.42 g/m*3 -4.8 C 0 km/h
50 25-12-2010 09:56:02 -4.7 C 2.44 g/m*3 -4.7 C 0 km/h
Sensor: Nr:Datum:Temp:Abs-Feuchte:Windchill:Wind:
Aussen-T/F 51 25-12-2010 10:08:02 -4.7 C 2.4 g/m*3 -4.7 C 0 km/h
52 25-12-2010 10:20:02 -4.7 C 2.37 g/m*3 -4.7 C 0 km/h
53 25-12-2010 10:32:02 -4.7 C 2.33 g/m*3 -4.7 C 0 km/h
54 25-12-2010 10:44:02 -4.6 C 2.31 g/m*3 -4.6 C 0 km/h
55 25-12-2010 10:56:02 -4.2 C 2.38 g/m*3 -4.2 C 0 km/h
56 25-12-2010 11:08:02 -4.5 C 2.29 g/m*3 -4.5 C 0 km/h
57 25-12-2010 11:20:03 -4.1 C 2.29 g/m*3 -4.1 C 0 km/h
58 25-12-2010 11:32:02 -4.3 C 2.18 g/m*3 -4.3 C 0 km/h
59 25-12-2010 11:44:02 -4.9 C 2.06 g/m*3 -4.9 C 0 km/h
60 25-12-2010 11:56:03 -4.7 C 2.09 g/m*3 -4.7 C 0 km/h
61 25-12-2010 12:08:02 -4.9 C 2.06 g/m*3 -4.9 C 0 km/h
62 25-12-2010 12:20:02 -5.2 C 2.01 g/m*3 -5.2 C 0 km/h
63 25-12-2010 12:32:02 -4.9 C 2.09 g/m*3 -4.9 C 0 km/h
64 25-12-2010 12:44:02 -4.9 C 2.09 g/m*3 -4.9 C 0 km/h
65 25-12-2010 12:56:02 -5 C 2.08 g/m*3 -5 C 0 km/h
66 25-12-2010 13:08:02 -4.6 C 2.17 g/m*3 -4.6 C 0 km/h
67 25-12-2010 13:20:02 -4.5 C 2.19 g/m*3 -4.5 C 0 km/h
68 25-12-2010 13:32:02 -4.7 C 2.19 g/m*3 -4.7 C 0 km/h
69 25-12-2010 13:44:02 -5.1 C 2.13 g/m*3 -5.1 C 0 km/h
70 25-12-2010 13:56:02 -4.7 C 2.23 g/m*3 -4.7 C 0 km/h
71 25-12-2010 14:08:01 -5 C 2.11 g/m*3 -5 C 0 km/h
72 25-12-2010 14:20:02 -4.9 C 2.13 g/m*3 -4.9 C 0 km/h
73 25-12-2010 14:32:02 -4.9 C 2.09 g/m*3 -4.9 C 0 km/h
74 25-12-2010 14:44:02 -4.8 C 2.11 g/m*3 -4.8 C 0 km/h
75 25-12-2010 14:56:02 -5 C 2.08 g/m*3 -5 C 0 km/h
Sensor: Nr:Datum:Temp:Abs-Feuchte:Windchill:Wind:
Aussen-T/F 76 25-12-2010 15:08:02 -5 C 2.11 g/m*3 -5 C 0 km/h
77 25-12-2010 15:20:02 -5.4 C 2.05 g/m*3 -5.4 C 0 km/h
78 25-12-2010 15:32:02 -5.6 C 2.05 g/m*3 -5.6 C 0 km/h
79 25-12-2010 15:44:02 -5.7 C 2.1 g/m*3 -5.7 C 0 km/h
80 25-12-2010 15:56:01 -6 C 2.12 g/m*3 -6 C 0 km/h
81 25-12-2010 16:08:02 -6.4 C 2.12 g/m*3 -6.4 C 0 km/h
82 25-12-2010 16:20:01 -6.7 C 2.11 g/m*3 -6.7 C 0 km/h
83 25-12-2010 16:32:01 -6.8 C 2.12 g/m*3 -6.8 C 0 km/h
84 25-12-2010 16:44:01 -7.3 C 2.07 g/m*3 -7.3 C 0 km/h
85 25-12-2010 16:56:01 -6.9 C 2.19 g/m*3 -6.9 C 0 km/h
86 25-12-2010 17:08:01 -7.4 C 2.12 g/m*3 -7.4 C 0 km/h
87 25-12-2010 17:20:02 -7.6 C 2.11 g/m*3 -7.6 C 0 km/h
88 25-12-2010 17:32:01 -7.8 C 2.08 g/m*3 -7.8 C 0 km/h
89 25-12-2010 17:44:01 -7.3 C 2.19 g/m*3 -7.3 C 0 km/h
90 25-12-2010 17:56:02 -7.5 C 2.13 g/m*3 -7.5 C 0 km/h
91 25-12-2010 18:08:01 -7.6 C 2.14 g/m*3 -7.6 C 0 km/h
92 25-12-2010 18:20:02 -7.5 C 2.16 g/m*3 -7.5 C 0 km/h
93 25-12-2010 18:32:01 -7.4 C 2.2 g/m*3 -7.4 C 0 km/h
94 25-12-2010 18:44:01 -7.4 C 2.17 g/m*3 -7.4 C 0 km/h
95 25-12-2010 18:56:02 -7.4 C 2.17 g/m*3 -7.4 C 0 km/h
96 25-12-2010 19:08:02 -7.4 C 2.17 g/m*3 -7.4 C 0 km/h
97 25-12-2010 19:20:02 -7.4 C 2.17 g/m*3 -7.4 C 0 km/h
98 25-12-2010 19:32:03 -7.4 C 2.17 g/m*3 -7.4 C 0 km/h
99 25-12-2010 19:44:03 -7.4 C 2.17 g/m*3 -7.4 C 0 km/h
100 25-12-2010 19:56:02 -7.4 C 2.17 g/m*3 -7.4 C 0 km/h
Sensor: Nr:Datum:Temp:Abs-Feuchte:Windchill:Wind:
Aussen-T/F 101 25-12-2010 20:08:01 -7.4 C 2.17 g/m*3 -7.4 C 0 km/h
102 25-12-2010 20:20:02 -8.8 C 2.04 g/m*3 -8.8 C 0 km/h
103 25-12-2010 20:32:02 -9.2 C 1.98 g/m*3 -9.2 C 0 km/h
104 25-12-2010 20:44:02 -8.6 C 2.09 g/m*3 -8.6 C 0 km/h
105 25-12-2010 20:56:02 -7.7 C 2.26 g/m*3 -7.7 C 0 km/h
106 25-12-2010 21:08:02 -7.6 C 2.31 g/m*3 -7.6 C 0 km/h
107 25-12-2010 21:20:02 -7.7 C 2.26 g/m*3 -7.7 C 0 km/h
108 25-12-2010 21:32:02 -7.6 C 2.28 g/m*3 -7.6 C 0 km/h
109 25-12-2010 21:44:02 -7.2 C 2.35 g/m*3 -7.2 C 0 km/h
110 25-12-2010 21:56:01 -6.9 C 2.37 g/m*3 -6.9 C 0 km/h
111 25-12-2010 22:08:02 -6.8 C 2.36 g/m*3 -6.8 C 0 km/h
112 25-12-2010 22:20:01 -6.9 C 2.31 g/m*3 -6.9 C 0 km/h
113 25-12-2010 22:32:01 -6.8 C 2.33 g/m*3 -6.8 C 0 km/h
114 25-12-2010 22:44:01 -6.8 C 2.27 g/m*3 -6.8 C 0 km/h
115 25-12-2010 22:56:01 -6.7 C 2.26 g/m*3 -6.7 C 0 km/h
116 25-12-2010 23:08:02 -6.8 C 2.18 g/m*3 -6.8 C 0 km/h
117 25-12-2010 23:20:02 -6.8 C 2.18 g/m*3 -6.8 C 0 km/h
118 25-12-2010 23:32:01 -6.9 C 2.16 g/m*3 -6.9 C 0 km/h
119 25-12-2010 23:44:01 -6.8 C 2.18 g/m*3 -6.8 C 0 km/h
120 25-12-2010 23:56:02 -6.8 C 2.18 g/m*3 -6.8 C 0 km/h
121 26-12-2010 00:08:01 -6.8 C 2.18 g/m*3 -6.8 C 0 km/h
122 26-12-2010 00:20:01 -6.9 C 2.16 g/m*3 -6.9 C 0 km/h
123 26-12-2010 00:32:01 -7 C 2.12 g/m*3 -7 C 0 km/h
124 26-12-2010 00:44:01 -7.3 C 2.07 g/m*3 -7.3 C 0 km/h
125 26-12-2010 00:56:01 -7.4 C 2.09 g/m*3 -7.4 C 0 km/h
Sensor: Nr:Datum:Temp:Abs-Feuchte:Windchill:Wind:
Aussen-T/F 126 26-12-2010 01:08:02 -7.8 C 2 g/m*3 -7.8 C 0 km/h
127 26-12-2010 01:20:02 -7.9 C 2.01 g/m*3 -7.9 C 0 km/h
128 26-12-2010 01:32:01 -8 C 2 g/m*3 -8 C 0 km/h
129 26-12-2010 01:44:01 -8.2 C 1.97 g/m*3 -8.2 C 0 km/h
130 26-12-2010 01:56:01 -8.1 C 1.98 g/m*3 -8.1 C 0 km/h
131 26-12-2010 02:08:01 -8.6 C 1.88 g/m*3 -8.6 C 0 km/h
132 26-12-2010 02:20:02 -8.7 C 1.9 g/m*3 -8.7 C 0 km/h
133 26-12-2010 02:32:01 -8.8 C 1.88 g/m*3 -8.8 C 0 km/h
134 26-12-2010 02:44:01 -8.9 C 1.87 g/m*3 -8.9 C 0 km/h
135 26-12-2010 02:57:05 -8.9 C 1.87 g/m*3 -8.9 C 0 km/h
136 26-12-2010 03:09:05 -9 C 1.83 g/m*3 -9 C 0 km/h
137 26-12-2010 03:21:04 -9.1 C 1.81 g/m*3 -9.1 C 0 km/h
138 26-12-2010 03:33:02 -9.1 C 1.81 g/m*3 -9.1 C 0 km/h
139 26-12-2010 03:45:02 -9 C 1.83 g/m*3 -9 C 0 km/h
140 26-12-2010 03:57:02 -9 C 1.83 g/m*3 -9 C 0 km/h
141 26-12-2010 04:09:02 -9 C 1.83 g/m*3 -9 C 0 km/h
142 26-12-2010 04:21:02 -9.2 C 1.83 g/m*3 -9.2 C 0 km/h
143 26-12-2010 04:33:02 -9.1 C 1.86 g/m*3 -9.1 C 0 km/h
144 26-12-2010 04:45:02 -8.9 C 1.89 g/m*3 -8.9 C 0 km/h
145 26-12-2010 04:57:02 -9 C 1.85 g/m*3 -9 C 0 km/h
146 26-12-2010 05:09:02 -8.8 C 1.91 g/m*3 -8.8 C 0 km/h
147 26-12-2010 05:21:02 -8.6 C 1.91 g/m*3 -8.6 C 0 km/h
148 26-12-2010 05:33:02 -8.6 C 1.91 g/m*3 -8.6 C 0 km/h
149 26-12-2010 05:45:02 -8.2 C 1.97 g/m*3 -8.2 C 0 km/h
150 26-12-2010 05:57:02 -8 C 2.02 g/m*3 -8 C 0 km/h
Sensor: Nr:Datum:Temp:Abs-Feuchte:Windchill:Wind:
Aussen-T/F 151 26-12-2010 06:09:02 -7.6 C 2.06 g/m*3 -7.6 C 0 km/h
152 26-12-2010 06:21:02 -7.4 C 2.09 g/m*3 -7.4 C 0 km/h
153 26-12-2010 06:33:01 -7.3 C 2.1 g/m*3 -7.3 C 0 km/h
154 26-12-2010 06:45:02 -7 C 2.15 g/m*3 -7 C 0 km/h
155 26-12-2010 06:57:02 -6.9 C 2.16 g/m*3 -6.9 C 0 km/h
156 26-12-2010 07:09:01 -6.7 C 2.2 g/m*3 -6.7 C 0 km/h
157 26-12-2010 07:21:01 -6.4 C 2.25 g/m*3 -6.4 C 0 km/h
158 26-12-2010 07:33:02 -6.2 C 2.28 g/m*3 -6.2 C 0 km/h
159 26-12-2010 07:45:02 -6.2 C 2.25 g/m*3 -6.2 C 0 km/h
160 26-12-2010 07:57:02 -6.2 C 2.25 g/m*3 -6.2 C 0 km/h
161 26-12-2010 08:09:02 -6.1 C 2.3 g/m*3 -6.1 C 0 km/h
162 26-12-2010 08:21:02 -5.9 C 2.36 g/m*3 -5.9 C 0 km/h
163 26-12-2010 08:33:02 -5.8 C 2.35 g/m*3 -5.8 C 0 km/h
164 26-12-2010 08:45:02 -5.8 C 2.38 g/m*3 -5.8 C 0 km/h
165 26-12-2010 08:57:02 -5.6 C 2.45 g/m*3 -5.6 C 0 km/h
166 26-12-2010 09:09:02 -5.4 C 2.51 g/m*3 -5.4 C 0 km/h
167 26-12-2010 09:21:02 -5.2 C 2.55 g/m*3 -5.2 C 0 km/h
168 26-12-2010 09:33:02 -4.7 C 2.64 g/m*3 -4.7 C 0 km/h
169 26-12-2010 09:45:02 -4.6 C 2.63 g/m*3 -4.6 C 0 km/h
170 26-12-2010 09:57:02 -4.5 C 2.65 g/m*3 -4.5 C 0 km/h
171 26-12-2010 10:09:02 -4.5 C 2.65 g/m*3 -4.5 C 0 km/h
172 26-12-2010 10:21:02 -4.4 C 2.67 g/m*3 -4.4 C 0 km/h
173 26-12-2010 10:33:02 -4.4 C 2.67 g/m*3 -4.4 C 0 km/h
174 26-12-2010 10:45:02 -4.1 C 2.69 g/m*3 -4.1 C 0 km/h
175 26-12-2010 10:57:02 -3.8 C 2.71 g/m*3 -3.8 C 0 km/h
Sensor: Nr:Datum:Temp:Abs-Feuchte:Windchill:Wind:
Aussen-T/F 176 26-12-2010 11:09:03 -3.6 C 2.71 g/m*3 -3.6 C 0 km/h
177 26-12-2010 11:21:02 -3.5 C 2.69 g/m*3 -3.5 C 0 km/h
178 26-12-2010 11:33:02 -3.7 C 2.65 g/m*3 -3.7 C 0 km/h
179 26-12-2010 11:45:02 -3.5 C 2.69 g/m*3 -3.5 C 0 km/h
180 26-12-2010 11:57:02 -3.3 C 2.69 g/m*3 -3.3 C 0 km/h
181 26-12-2010 12:09:02 -3.4 C 2.71 g/m*3 -3.4 C 0 km/h
182 26-12-2010 12:21:02 -3.3 C 2.73 g/m*3 -3.3 C 0 km/h
183 26-12-2010 12:33:01 -3 C 2.83 g/m*3 -3 C 0 km/h
184 26-12-2010 12:45:02 -3.1 C 2.81 g/m*3 -3.1 C 0 km/h
185 26-12-2010 12:57:03 -2.9 C 2.85 g/m*3 -2.9 C 0 km/h
186 26-12-2010 13:09:01 -2.8 C 2.87 g/m*3 -2.8 C 0 km/h
187 26-12-2010 13:21:01 -2.6 C 2.87 g/m*3 -2.6 C 0 km/h
188 26-12-2010 13:33:02 -2.7 C 2.81 g/m*3 -2.7 C 0 km/h
189 26-12-2010 13:45:02 -2.8 C 2.83 g/m*3 -2.8 C 0 km/h
190 26-12-2010 13:57:02 -2.7 C 2.89 g/m*3 -2.7 C 0 km/h
191 26-12-2010 14:09:02 -2.8 C 2.91 g/m*3 -2.8 C 0 km/h
192 26-12-2010 14:21:01 -2.7 C 2.97 g/m*3 -2.7 C 0 km/h
193 26-12-2010 14:33:02 -2.4 C 3.07 g/m*3 -2.4 C 0 km/h
194 26-12-2010 14:45:02 -2.7 C 3.01 g/m*3 -2.7 C 0 km/h
195 26-12-2010 14:57:02 -2.7 C 3.05 g/m*3 -2.7 C 0 km/h
196 26-12-2010 15:09:02 -2.6 C 3.11 g/m*3 -2.6 C 0 km/h
197 26-12-2010 15:21:02 -2.6 C 3.15 g/m*3 -2.6 C 0 km/h
198 26-12-2010 15:33:02 -2.8 C 3.11 g/m*3 -2.8 C 0 km/h
199 26-12-2010 15:45:02 -2.8 C 3.15 g/m*3 -2.8 C 0 km/h
200 26-12-2010 15:57:02 -2.8 C 3.15 g/m*3 -2.8 C 0 km/h
Sensor: Nr:Datum:Temp:Abs-Feuchte:Windchill:Wind:
Aussen-T/F 201 26-12-2010 16:09:02 -2.8 C 3.15 g/m*3 -2.8 C 0 km/h
202 26-12-2010 16:21:02 -2.8 C 3.15 g/m*3 -2.8 C 0 km/h
203 26-12-2010 16:33:02 -2.9 C 3.16 g/m*3 -2.9 C 0 km/h
204 26-12-2010 16:45:02 -2.9 C 3.16 g/m*3 -2.9 C 0 km/h
205 26-12-2010 16:57:02 -2.9 C 3.16 g/m*3 -2.9 C 0 km/h
206 26-12-2010 17:09:02 -2.8 C 3.19 g/m*3 -2.8 C 0 km/h
207 26-12-2010 17:21:02 -2.7 C 3.17 g/m*3 -2.7 C 0 km/h
208 26-12-2010 17:33:02 -2.8 C 3.15 g/m*3 -2.8 C 0 km/h
209 26-12-2010 17:45:02 -2.9 C 3.16 g/m*3 -2.9 C 0 km/h
210 26-12-2010 17:57:02 -2.9 C 3.16 g/m*3 -2.9 C 0 km/h
211 26-12-2010 18:09:01 -3.2 C 3.1 g/m*3 -3.2 C 0 km/h
212 26-12-2010 18:21:02 -3.1 C 3.16 g/m*3 -3.1 C 0 km/h
213 26-12-2010 18:33:01 -2.8 C 3.23 g/m*3 -2.8 C 0 km/h
214 26-12-2010 18:45:02 -2.7 C 3.21 g/m*3 -2.7 C 0 km/h
215 26-12-2010 18:57:03 -2.7 C 3.17 g/m*3 -2.7 C 0 km/h
216 26-12-2010 19:09:01 -2.8 C 3.15 g/m*3 -2.8 C 0 km/h
217 26-12-2010 19:21:01 -2.7 C 3.17 g/m*3 -2.7 C 0 km/h
218 26-12-2010 19:33:02 -2.7 C 3.17 g/m*3 -2.7 C 0 km/h
219 26-12-2010 19:45:02 -2.7 C 3.21 g/m*3 -2.7 C 0 km/h
220 26-12-2010 19:57:02 -2.7 C 3.21 g/m*3 -2.7 C 0 km/h
221 26-12-2010 20:09:02 -3 C 3.14 g/m*3 -3 C 0 km/h
222 26-12-2010 20:21:02 -3.5 C 3.03 g/m*3 -3.5 C 0 km/h
223 26-12-2010 20:33:02 -2.9 C 3.24 g/m*3 -2.9 C 0 km/h
224 26-12-2010 20:45:02 -2.8 C 3.23 g/m*3 -2.8 C 0 km/h
225 26-12-2010 20:57:02 -3 C 3.14 g/m*3 -3 C 0 km/h
Sensor: Nr:Datum:Temp:Abs-Feuchte:Windchill:Wind:
Aussen-T/F 226 26-12-2010 21:09:02 -3.5 C 3.03 g/m*3 -3.5 C 0 km/h
227 26-12-2010 21:21:02 -3 C 3.18 g/m*3 -3 C 0 km/h
228 26-12-2010 21:33:02 -3 C 3.14 g/m*3 -3 C 0 km/h
229 26-12-2010 21:45:02 -3.5 C 3.03 g/m*3 -3.5 C 0 km/h
230 26-12-2010 21:57:02 -3.5 C 3.03 g/m*3 -3.5 C 0 km/h
231 26-12-2010 22:09:02 -3.2 C 3.14 g/m*3 -3.2 C 0 km/h
232 26-12-2010 22:22:04 -3 C 3.14 g/m*3 -3 C 0 km/h
233 26-12-2010 22:34:04 -3 C 3.1 g/m*3 -3 C 0 km/h
234 26-12-2010 22:46:04 -2.9 C 3.13 g/m*3 -2.9 C 0 km/h
235 26-12-2010 22:58:04 -3.1 C 3.12 g/m*3 -3.1 C 0 km/h
236 26-12-2010 23:10:04 -3.1 C 3.12 g/m*3 -3.1 C 0 km/h
237 26-12-2010 23:22:04 -2.8 C 3.19 g/m*3 -2.8 C 0 km/h
238 26-12-2010 23:34:04 -2.6 C 3.19 g/m*3 -2.6 C 0 km/h
239 26-12-2010 23:46:04 -2.5 C 3.21 g/m*3 -2.5 C 0 km/h
240 26-12-2010 23:58:04 -2.6 C 3.19 g/m*3 -2.6 C 0 km/h
241 27-12-2010 00:10:04 -2.7 C 3.17 g/m*3 -2.7 C 0 km/h
242 27-12-2010 00:22:04 -2.8 C 3.19 g/m*3 -2.8 C 0 km/h
243 27-12-2010 00:34:04 -2.7 C 3.21 g/m*3 -2.7 C 0 km/h
244 27-12-2010 00:46:04 -2.6 C 3.23 g/m*3 -2.6 C 0 km/h
245 27-12-2010 00:58:05 -2.4 C 3.28 g/m*3 -2.4 C 0 km/h
246 27-12-2010 01:10:05 -2.3 C 3.26 g/m*3 -2.3 C 0 km/h
247 27-12-2010 01:22:05 -1.9 C 3.35 g/m*3 -1.9 C 0 km/h
248 27-12-2010 01:34:05 -1.9 C 3.31 g/m*3 -1.9 C 0 km/h
249 27-12-2010 01:46:05 -1.8 C 3.33 g/m*3 -1.8 C 0 km/h
250 27-12-2010 01:58:05 -1.7 C 3.31 g/m*3 -1.7 C 0 km/h
Sensor: Nr:Datum:Temp:Abs-Feuchte:Windchill:Wind:
Aussen-T/F 251 27-12-2010 02:10:05 -1.6 C 3.34 g/m*3 -1.6 C 0 km/h
252 27-12-2010 02:22:05 -1.5 C 3.36 g/m*3 -1.5 C 0 km/h
253 27-12-2010 02:34:05 -1.6 C 3.34 g/m*3 -1.6 C 0 km/h
254 27-12-2010 02:46:05 -1.5 C 3.36 g/m*3 -1.5 C 0 km/h
255 27-12-2010 02:58:05 -1.8 C 3.33 g/m*3 -1.8 C 0 km/h
256 27-12-2010 03:10:05 -1.5 C 3.41 g/m*3 -1.5 C 0 km/h
257 27-12-2010 03:22:05 -1.4 C 3.43 g/m*3 -1.4 C 0 km/h
258 27-12-2010 03:34:05 -1.4 C 3.39 g/m*3 -1.4 C 0 km/h
259 27-12-2010 03:46:05 -1.3 C 3.41 g/m*3 -1.3 C 0 km/h
260 27-12-2010 03:58:05 -1.3 C 3.41 g/m*3 -1.3 C 0 km/h
261 27-12-2010 04:10:05 -1.3 C 3.36 g/m*3 -1.3 C 0 km/h
262 27-12-2010 04:22:05 -1.3 C 3.36 g/m*3 -1.3 C 0 km/h
263 27-12-2010 04:34:05 -1.3 C 3.36 g/m*3 -1.3 C 0 km/h
264 27-12-2010 04:46:05 -1.3 C 3.36 g/m*3 -1.3 C 0 km/h
265 27-12-2010 04:58:05 -1.3 C 3.36 g/m*3 -1.3 C 0 km/h
266 27-12-2010 05:10:06 -1.3 C 3.36 g/m*3 -1.3 C 0 km/h
267 27-12-2010 05:22:06 -1.3 C 3.36 g/m*3 -1.3 C 0 km/h
268 27-12-2010 05:34:06 -1.3 C 3.36 g/m*3 -1.3 C 0 km/h
269 27-12-2010 05:46:06 -1.3 C 3.36 g/m*3 -1.3 C 0 km/h
270 27-12-2010 05:58:06 -1.4 C 3.39 g/m*3 -1.4 C 0 km/h
271 27-12-2010 06:10:06 -1.4 C 3.39 g/m*3 -1.4 C 0 km/h
272 27-12-2010 06:22:06 -1.4 C 3.39 g/m*3 -1.4 C 0 km/h
273 27-12-2010 06:34:06 -1.5 C 3.36 g/m*3 -1.5 C 0 km/h
274 27-12-2010 06:46:06 -1.4 C 3.39 g/m*3 -1.4 C 0 km/h
275 27-12-2010 06:58:06 -1.5 C 3.36 g/m*3 -1.5 C 0 km/h
Sensor: Nr:Datum:Temp:Abs-Feuchte:Windchill:Wind:
Aussen-T/F 276 27-12-2010 07:10:06 -1.6 C 3.34 g/m*3 -1.6 C 0 km/h
277 27-12-2010 07:22:06 -1.5 C 3.36 g/m*3 -1.5 C 0 km/h
278 27-12-2010 07:34:06 -1.5 C 3.36 g/m*3 -1.5 C 0 km/h
279 27-12-2010 07:46:06 -1.7 C 3.31 g/m*3 -1.7 C 0 km/h
280 27-12-2010 07:58:06 -1.8 C 3.29 g/m*3 -1.8 C 0 km/h
281 27-12-2010 08:10:06 -1.8 C 3.33 g/m*3 -1.8 C 0 km/h
282 27-12-2010 08:22:06 -1.8 C 3.29 g/m*3 -1.8 C 0 km/h
283 27-12-2010 08:34:06 -1.9 C 3.27 g/m*3 -1.9 C 0 km/h
284 27-12-2010 08:46:02 -1.9 C 3.27 g/m*3 -1.9 C 0 km/h
285 27-12-2010 08:58:02 -1.9 C 3.27 g/m*3 -1.9 C 0 km/h
286 27-12-2010 09:10:02 -1.8 C 3.25 g/m*3 -1.8 C 0 km/h
287 27-12-2010 09:22:02 -1.8 C 3.25 g/m*3 -1.8 C 0 km/h
288 27-12-2010 09:34:02 -1.8 C 3.25 g/m*3 -1.8 C 0 km/h
289 27-12-2010 09:46:02 -1.8 C 3.25 g/m*3 -1.8 C 0 km/h
290 27-12-2010 09:58:02 -1.7 C 3.23 g/m*3 -1.7 C 0 km/h
291 27-12-2010 10:10:02 -1.6 C 3.25 g/m*3 -1.6 C 0 km/h
292 27-12-2010 10:22:03 -1.4 C 3.3 g/m*3 -1.4 C 0 km/h
293 27-12-2010 10:34:02 -1.4 C 3.3 g/m*3 -1.4 C 0 km/h
294 27-12-2010 10:46:02 -1.4 C 3.25 g/m*3 -1.4 C 0 km/h
295 27-12-2010 10:58:02 -1.3 C 3.28 g/m*3 -1.3 C 0 km/h
296 27-12-2010 11:10:02 -1.2 C 3.3 g/m*3 -1.2 C 0 km/h
297 27-12-2010 11:22:02 -1.2 C 3.25 g/m*3 -1.2 C 0 km/h
298 27-12-2010 11:34:02 -1.2 C 3.25 g/m*3 -1.2 C 0 km/h
299 27-12-2010 11:46:02 -1 C 3.3 g/m*3 -1 C 0 km/h
300 27-12-2010 11:58:02 -1.2 C 3.21 g/m*3 -1.2 C 0 km/h
Sensor: Nr:Datum:Temp:Abs-Feuchte:Windchill:Wind:
Aussen-T/F 301 27-12-2010 12:10:02 -0.8 C 3.25 g/m*3 -0.8 C 0 km/h
302 27-12-2010 12:22:02 -1 C 3.21 g/m*3 -1 C 0 km/h
303 27-12-2010 12:34:01 -1.1 C 3.19 g/m*3 -1.1 C 0 km/h
304 27-12-2010 12:46:02 -1.1 C 3.23 g/m*3 -1.1 C 0 km/h
305 27-12-2010 12:58:02 -1.1 C 3.23 g/m*3 -1.1 C 0 km/h
306 27-12-2010 13:10:01 -1.2 C 3.25 g/m*3 -1.2 C 0 km/h
307 27-12-2010 13:22:02 -0.9 C 3.32 g/m*3 -0.9 C 0 km/h
308 27-12-2010 13:34:02 -1 C 3.25 g/m*3 -1 C 0 km/h
309 27-12-2010 13:46:02 -0.8 C 3.3 g/m*3 -0.8 C 0 km/h
310 27-12-2010 13:58:02 -0.5 C 3.32 g/m*3 -0.5 C 0 km/h
311 27-12-2010 14:10:03 -0.9 C 3.23 g/m*3 -0.9 C 0 km/h
312 27-12-2010 14:22:02 -1.1 C 3.23 g/m*3 -1.1 C 0 km/h
313 27-12-2010 14:34:02 -1 C 3.3 g/m*3 -1 C 0 km/h
314 27-12-2010 14:46:01 -1.1 C 3.28 g/m*3 -1.1 C 0 km/h
315 27-12-2010 14:58:01 -1.1 C 3.32 g/m*3 -1.1 C 0 km/h
316 27-12-2010 15:10:02 -1.2 C 3.3 g/m*3 -1.2 C 0 km/h
317 27-12-2010 15:22:01 -1.3 C 3.32 g/m*3 -1.3 C 0 km/h
318 27-12-2010 15:34:01 -1.3 C 3.36 g/m*3 -1.3 C 0 km/h
319 27-12-2010 15:46:01 -1.2 C 3.34 g/m*3 -1.2 C 0 km/h
320 27-12-2010 15:58:01 -1.5 C 3.32 g/m*3 -1.5 C 0 km/h
321 27-12-2010 16:10:02 -1.9 C 3.23 g/m*3 -1.9 C 0 km/h
322 27-12-2010 16:22:01 -2.1 C 3.26 g/m*3 -2.1 C 0 km/h
323 27-12-2010 16:34:01 -2.3 C 3.26 g/m*3 -2.3 C 0 km/h
324 27-12-2010 16:46:01 -2.5 C 3.26 g/m*3 -2.5 C 0 km/h
325 27-12-2010 16:58:01 -2.7 C 3.25 g/m*3 -2.7 C 0 km/h
Sensor: Nr:Datum:Temp:Abs-Feuchte:Windchill:Wind:
Aussen-T/F 326 27-12-2010 17:10:02 -3 C 3.22 g/m*3 -3 C 0 km/h
327 27-12-2010 17:22:02 -3.3 C 3.19 g/m*3 -3.3 C 0 km/h
328 27-12-2010 17:34:01 -3.3 C 3.23 g/m*3 -3.3 C 0 km/h
329 27-12-2010 17:46:02 -3.1 C 3.32 g/m*3 -3.1 C 0 km/h
330 27-12-2010 17:58:02 -3.1 C 3.32 g/m*3 -3.1 C 0 km/h
331 27-12-2010 18:10:01 -3.1 C 3.35 g/m*3 -3.1 C 0 km/h
332 27-12-2010 18:22:02 -3.2 C 3.33 g/m*3 -3.2 C 0 km/h
333 27-12-2010 18:34:01 -3.2 C 3.33 g/m*3 -3.2 C 0 km/h
334 27-12-2010 18:46:02 -3.2 C 3.33 g/m*3 -3.2 C 0 km/h
335 27-12-2010 18:58:02 -3.2 C 3.33 g/m*3 -3.2 C 0 km/h
336 27-12-2010 19:10:02 -3.4 C 3.28 g/m*3 -3.4 C 0 km/h
337 27-12-2010 19:22:02 -3.6 C 3.24 g/m*3 -3.6 C 0 km/h
338 27-12-2010 19:34:03 -3.7 C 3.21 g/m*3 -3.7 C 0 km/h
339 27-12-2010 19:46:02 -4 C 3.15 g/m*3 -4 C 0 km/h
340 27-12-2010 19:58:02 -4 C 3.15 g/m*3 -4 C 0 km/h
341 27-12-2010 20:10:01 -4.1 C 3.16 g/m*3 -4.1 C 0 km/h
342 27-12-2010 20:22:02 -4.1 C 3.16 g/m*3 -4.1 C 0 km/h
343 27-12-2010 20:34:02 -4.4 C 3.09 g/m*3 -4.4 C 0 km/h
344 27-12-2010 20:46:02 -4.3 C 3.12 g/m*3 -4.3 C 0 km/h
345 27-12-2010 20:58:02 -4.6 C 3.05 g/m*3 -4.6 C 0 km/h
346 27-12-2010 21:10:02 -4.6 C 3.05 g/m*3 -4.6 C 0 km/h
347 27-12-2010 21:22:02 -4.5 C 3.07 g/m*3 -4.5 C 0 km/h
348 27-12-2010 21:34:02 -4.5 C 3.07 g/m*3 -4.5 C 0 km/h
349 27-12-2010 21:46:02 -4.5 C 3.07 g/m*3 -4.5 C 0 km/h
350 27-12-2010 21:58:02 -3.9 C 3.24 g/m*3 -3.9 C 0 km/h
Sensor: Nr:Datum:Temp:Abs-Feuchte:Windchill:Wind:
Aussen-T/F 351 27-12-2010 22:10:02 -3.8 C 3.27 g/m*3 -3.8 C 0 km/h
352 27-12-2010 22:23:02 -4.5 C 3.07 g/m*3 -4.5 C 0 km/h
353 27-12-2010 22:35:02 -4.5 C 3.07 g/m*3 -4.5 C 0 km/h
354 27-12-2010 22:47:02 -3.9 C 3.21 g/m*3 -3.9 C 0 km/h
355 27-12-2010 22:59:02 -4 C 3.18 g/m*3 -4 C 0 km/h
356 27-12-2010 23:11:03 -3.9 C 3.24 g/m*3 -3.9 C 0 km/h
357 27-12-2010 23:23:03 -3.9 C 3.21 g/m*3 -3.9 C 0 km/h
358 27-12-2010 23:35:03 -4.3 C 3.12 g/m*3 -4.3 C 0 km/h
359 27-12-2010 23:47:03 -4.7 C 3.03 g/m*3 -4.7 C 0 km/h
360 27-12-2010 23:59:03 -4.9 C 2.95 g/m*3 -4.9 C 0 km/h
361 28-12-2010 00:11:03 -4.7 C 3.03 g/m*3 -4.7 C 0 km/h
362 28-12-2010 00:23:03 -4.5 C 3.07 g/m*3 -4.5 C 0 km/h
363 28-12-2010 00:35:03 -4.5 C 3.07 g/m*3 -4.5 C 0 km/h
364 28-12-2010 00:47:03 -4.3 C 3.12 g/m*3 -4.3 C 0 km/h
365 28-12-2010 00:59:03 -4.3 C 3.12 g/m*3 -4.3 C 0 km/h
366 28-12-2010 01:11:03 -4.1 C 3.16 g/m*3 -4.1 C 0 km/h
367 28-12-2010 01:23:03 -4.4 C 3.09 g/m*3 -4.4 C 0 km/h
368 28-12-2010 01:35:03 -4.4 C 3.09 g/m*3 -4.4 C 0 km/h
369 28-12-2010 01:47:03 -4.3 C 3.12 g/m*3 -4.3 C 0 km/h
370 28-12-2010 01:59:03 -4.3 C 3.12 g/m*3 -4.3 C 0 km/h
371 28-12-2010 02:11:03 -4.1 C 3.16 g/m*3 -4.1 C 0 km/h
372 28-12-2010 02:23:03 -4 C 3.18 g/m*3 -4 C 0 km/h
373 28-12-2010 02:35:03 -4.1 C 3.16 g/m*3 -4.1 C 0 km/h
374 28-12-2010 02:47:03 -4.2 C 3.14 g/m*3 -4.2 C 0 km/h
375 28-12-2010 02:59:03 -4.4 C 3.09 g/m*3 -4.4 C 0 km/h
Sensor: Nr:Datum:Temp:Abs-Feuchte:Windchill:Wind:
Aussen-T/F 376 28-12-2010 03:11:03 -4.2 C 3.14 g/m*3 -4.2 C 0 km/h
377 28-12-2010 03:23:04 -4.2 C 3.14 g/m*3 -4.2 C 0 km/h
378 28-12-2010 03:35:04 -4.5 C 3.04 g/m*3 -4.5 C 0 km/h
379 28-12-2010 03:47:04 -4.5 C 3.04 g/m*3 -4.5 C 0 km/h
380 28-12-2010 03:59:04 -4.4 C 3.06 g/m*3 -4.4 C 0 km/h
381 28-12-2010 04:11:04 -4.2 C 3.14 g/m*3 -4.2 C 0 km/h
382 28-12-2010 04:23:04 -4.2 C 3.14 g/m*3 -4.2 C 0 km/h
383 28-12-2010 04:35:04 -4.2 C 3.14 g/m*3 -4.2 C 0 km/h
384 28-12-2010 04:47:04 -4.2 C 3.14 g/m*3 -4.2 C 0 km/h
385 28-12-2010 04:59:04 -4 C 3.18 g/m*3 -4 C 0 km/h
386 28-12-2010 05:11:04 -3.9 C 3.21 g/m*3 -3.9 C 0 km/h
387 28-12-2010 05:23:04 -3.8 C 3.23 g/m*3 -3.8 C 0 km/h
388 28-12-2010 05:35:04 -3.8 C 3.23 g/m*3 -3.8 C 0 km/h
389 28-12-2010 05:47:04 -3.6 C 3.27 g/m*3 -3.6 C 0 km/h
390 28-12-2010 05:59:04 -3.8 C 3.23 g/m*3 -3.8 C 0 km/h
391 28-12-2010 06:11:04 -3.6 C 3.27 g/m*3 -3.6 C 0 km/h
392 28-12-2010 06:23:04 -3.7 C 3.25 g/m*3 -3.7 C 0 km/h
393 28-12-2010 06:35:04 -3.8 C 3.23 g/m*3 -3.8 C 0 km/h
394 28-12-2010 06:47:04 -3.8 C 3.23 g/m*3 -3.8 C 0 km/h
395 28-12-2010 06:59:04 -3.8 C 3.23 g/m*3 -3.8 C 0 km/h
396 28-12-2010 07:11:04 -3.7 C 3.25 g/m*3 -3.7 C 0 km/h
397 28-12-2010 07:23:05 -3.7 C 3.21 g/m*3 -3.7 C 0 km/h
398 28-12-2010 07:35:05 -3.7 C 3.21 g/m*3 -3.7 C 0 km/h
399 28-12-2010 07:47:05 -3.7 C 3.21 g/m*3 -3.7 C 0 km/h
400 28-12-2010 07:59:05 -3.8 C 3.19 g/m*3 -3.8 C 0 km/h
Sensor: Nr:Datum:Temp:Abs-Feuchte:Windchill:Wind:
Aussen-T/F 401 28-12-2010 08:11:05 -3.7 C 3.21 g/m*3 -3.7 C 0 km/h
402 28-12-2010 08:23:05 -3.7 C 3.21 g/m*3 -3.7 C 0 km/h
403 28-12-2010 08:35:05 -3.6 C 3.24 g/m*3 -3.6 C 0 km/h
404 28-12-2010 08:47:05 -3.5 C 3.26 g/m*3 -3.5 C 0 km/h
405 28-12-2010 08:59:05 -3.3 C 3.31 g/m*3 -3.3 C 0 km/h
406 28-12-2010 09:11:05 -3.1 C 3.35 g/m*3 -3.1 C 0 km/h
407 28-12-2010 09:23:05 -3 C 3.38 g/m*3 -3 C 0 km/h
408 28-12-2010 09:35:05 -2.7 C 3.45 g/m*3 -2.7 C 0 km/h
409 28-12-2010 09:47:05 -2.5 C 3.46 g/m*3 -2.5 C 0 km/h
410 28-12-2010 09:59:05 -2.1 C 3.56 g/m*3 -2.1 C 0 km/h
411 28-12-2010 10:11:02 -1.7 C 3.62 g/m*3 -1.7 C 0 km/h
412 28-12-2010 10:23:02 -1.4 C 3.65 g/m*3 -1.4 C 0 km/h
413 28-12-2010 10:35:02 -1.1 C 3.68 g/m*3 -1.1 C 0 km/h
414 28-12-2010 10:47:01 -0.7 C 3.6 g/m*3 -0.7 C 0 km/h
415 28-12-2010 10:59:01 -0.7 C 3.51 g/m*3 -0.7 C 0 km/h
416 28-12-2010 11:11:02 -0.8 C 3.44 g/m*3 -0.8 C 0 km/h
417 28-12-2010 11:23:01 -0.7 C 3.51 g/m*3 -0.7 C 0 km/h
418 28-12-2010 11:35:01 -0.6 C 3.49 g/m*3 -0.6 C 0 km/h
419 28-12-2010 11:47:01 -0.3 C 3.46 g/m*3 -0.3 C 0 km/h
420 28-12-2010 11:59:01 -0.3 C 3.42 g/m*3 -0.3 C 0 km/h
421 28-12-2010 12:11:02 0.1 C 3.46 g/m*3 0.1 C 0 km/h
422 28-12-2010 12:23:01 0.2 C 3.39 g/m*3 0.2 C 0 km/h
423 28-12-2010 12:35:02 0.5 C 3.26 g/m*3 0.5 C 0 km/h
424 28-12-2010 12:47:01 0.3 C 3.22 g/m*3 0.3 C 0 km/h
425 28-12-2010 12:59:01 0.4 C 3.24 g/m*3 0.4 C 0 km/h
Sensor: Nr:Datum:Temp:Abs-Feuchte:Windchill:Wind:
Aussen-T/F 426 28-12-2010 13:11:02 0.2 C 3.24 g/m*3 0.2 C 0 km/h
427 28-12-2010 13:23:01 0.5 C 3.36 g/m*3 0.5 C 0 km/h
428 28-12-2010 13:35:01 0.7 C 3.41 g/m*3 0.7 C 0 km/h
429 28-12-2010 13:47:01 0.4 C 3.34 g/m*3 0.4 C 0 km/h
430 28-12-2010 13:59:01 0 C 3.25 g/m*3 0 C 0 km/h
431 28-12-2010 14:11:01 0.3 C 3.36 g/m*3 0.3 C 0 km/h
432 28-12-2010 14:23:02 0 C 3.29 g/m*3 0 C 0 km/h
433 28-12-2010 14:35:01 -0.1 C 3.27 g/m*3 -0.1 C 0 km/h
434 28-12-2010 14:47:02 0 C 3.34 g/m*3 0 C 0 km/h
435 28-12-2010 14:59:02 -0.2 C 3.39 g/m*3 -0.2 C 0 km/h
436 28-12-2010 15:11:01 -0.4 C 3.39 g/m*3 -0.4 C 0 km/h
437 28-12-2010 15:23:01 -0.5 C 3.42 g/m*3 -0.5 C 0 km/h
438 28-12-2010 15:35:01 -0.6 C 3.44 g/m*3 -0.6 C 0 km/h
439 28-12-2010 15:47:02 -0.6 C 3.44 g/m*3 -0.6 C 0 km/h
440 28-12-2010 15:59:02 -0.6 C 3.39 g/m*3 -0.6 C 0 km/h
441 28-12-2010 16:11:01 -0.6 C 3.39 g/m*3 -0.6 C 0 km/h
442 28-12-2010 16:23:02 -0.7 C 3.37 g/m*3 -0.7 C 0 km/h
443 28-12-2010 16:35:02 -0.7 C 3.37 g/m*3 -0.7 C 0 km/h
444 28-12-2010 16:47:01 -0.7 C 3.42 g/m*3 -0.7 C 0 km/h
445 28-12-2010 16:59:01 -0.7 C 3.42 g/m*3 -0.7 C 0 km/h
446 28-12-2010 17:11:02 -0.7 C 3.42 g/m*3 -0.7 C 0 km/h
447 28-12-2010 17:23:01 -0.7 C 3.42 g/m*3 -0.7 C 0 km/h
448 28-12-2010 17:35:02 -0.7 C 3.42 g/m*3 -0.7 C 0 km/h
449 28-12-2010 17:47:02 -0.7 C 3.42 g/m*3 -0.7 C 0 km/h
450 28-12-2010 17:59:02 -0.7 C 3.42 g/m*3 -0.7 C 0 km/h
Sensor: Nr:Datum:Temp:Abs-Feuchte:Windchill:Wind:
Aussen-T/F 451 28-12-2010 18:11:02 -0.8 C 3.44 g/m*3 -0.8 C 0 km/h
452 28-12-2010 18:23:01 -0.8 C 3.44 g/m*3 -0.8 C 0 km/h
453 28-12-2010 18:35:02 -0.8 C 3.35 g/m*3 -0.8 C 0 km/h
454 28-12-2010 18:47:01 -0.9 C 3.32 g/m*3 -0.9 C 0 km/h
455 28-12-2010 18:59:01 -1.1 C 3.37 g/m*3 -1.1 C 0 km/h
456 28-12-2010 19:11:02 -1.1 C 3.41 g/m*3 -1.1 C 0 km/h
457 28-12-2010 19:23:01 -1.1 C 3.41 g/m*3 -1.1 C 0 km/h
458 28-12-2010 19:35:02 -1.2 C 3.43 g/m*3 -1.2 C 0 km/h
459 28-12-2010 19:47:01 -1.2 C 3.52 g/m*3 -1.2 C 0 km/h
460 28-12-2010 19:59:01 -1.4 C 3.47 g/m*3 -1.4 C 0 km/h
461 28-12-2010 20:11:02 -1.2 C 3.48 g/m*3 -1.2 C 0 km/h
462 28-12-2010 20:23:02 -1.2 C 3.48 g/m*3 -1.2 C 0 km/h
463 28-12-2010 20:35:01 -1.4 C 3.43 g/m*3 -1.4 C 0 km/h
464 28-12-2010 20:47:02 -1.5 C 3.41 g/m*3 -1.5 C 0 km/h
465 28-12-2010 20:59:02 -1.7 C 3.36 g/m*3 -1.7 C 0 km/h
466 28-12-2010 21:11:01 -1.9 C 3.31 g/m*3 -1.9 C 0 km/h
467 28-12-2010 21:23:02 -2 C 3.33 g/m*3 -2 C 0 km/h
468 28-12-2010 21:35:01 -2.1 C 3.35 g/m*3 -2.1 C 0 km/h
469 28-12-2010 21:47:02 -1.8 C 3.46 g/m*3 -1.8 C 0 km/h
470 28-12-2010 21:59:02 -1.5 C 3.54 g/m*3 -1.5 C 0 km/h
471 28-12-2010 22:11:02 -1.2 C 3.61 g/m*3 -1.2 C 0 km/h
472 28-12-2010 22:24:03 -1.3 C 3.59 g/m*3 -1.3 C 0 km/h
473 28-12-2010 22:36:03 -1.3 C 3.59 g/m*3 -1.3 C 0 km/h
474 28-12-2010 22:48:03 -1.3 C 3.59 g/m*3 -1.3 C 0 km/h
475 28-12-2010 23:00:03 -1.3 C 3.54 g/m*3 -1.3 C 0 km/h
Sensor: Nr:Datum:Temp:Abs-Feuchte:Windchill:Wind:
Aussen-T/F 476 28-12-2010 23:12:03 -1.3 C 3.59 g/m*3 -1.3 C 0 km/h
477 28-12-2010 23:24:03 -1.3 C 3.59 g/m*3 -1.3 C 0 km/h
478 28-12-2010 23:36:03 -1.3 C 3.59 g/m*3 -1.3 C 0 km/h
479 28-12-2010 23:48:03 -1.2 C 3.61 g/m*3 -1.2 C 0 km/h
480 29-12-2010 00:00:03 -1.3 C 3.54 g/m*3 -1.3 C 0 km/h
481 29-12-2010 00:12:03 -1.4 C 3.52 g/m*3 -1.4 C 0 km/h
482 29-12-2010 00:24:03 -1.3 C 3.59 g/m*3 -1.3 C 0 km/h
483 29-12-2010 00:36:03 -1.3 C 3.59 g/m*3 -1.3 C 0 km/h
484 29-12-2010 00:48:03 -1.3 C 3.59 g/m*3 -1.3 C 0 km/h
485 29-12-2010 01:00:03 -1.3 C 3.59 g/m*3 -1.3 C 0 km/h
486 29-12-2010 01:12:03 -1.3 C 3.63 g/m*3 -1.3 C 0 km/h
487 29-12-2010 01:24:03 -1.3 C 3.63 g/m*3 -1.3 C 0 km/h
488 29-12-2010 01:36:03 -1.3 C 3.63 g/m*3 -1.3 C 0 km/h
489 29-12-2010 01:48:03 -1.3 C 3.63 g/m*3 -1.3 C 0 km/h
490 29-12-2010 02:00:03 -1.3 C 3.63 g/m*3 -1.3 C 0 km/h
491 29-12-2010 02:12:04 -1.3 C 3.63 g/m*3 -1.3 C 0 km/h
492 29-12-2010 02:24:04 -1.3 C 3.63 g/m*3 -1.3 C 0 km/h
493 29-12-2010 02:36:04 -1.3 C 3.63 g/m*3 -1.3 C 0 km/h
494 29-12-2010 02:48:04 -1.3 C 3.67 g/m*3 -1.3 C 0 km/h
495 29-12-2010 03:00:04 -1.2 C 3.66 g/m*3 -1.2 C 0 km/h
496 29-12-2010 03:12:04 -1.3 C 3.63 g/m*3 -1.3 C 0 km/h
497 29-12-2010 03:24:04 -1.2 C 3.7 g/m*3 -1.2 C 0 km/h
498 29-12-2010 03:36:04 -1.2 C 3.7 g/m*3 -1.2 C 0 km/h
499 29-12-2010 03:48:04 -1.2 C 3.7 g/m*3 -1.2 C 0 km/h
500 29-12-2010 04:00:04 -1.2 C 3.7 g/m*3 -1.2 C 0 km/h
Sensor: Nr:Datum:Temp:Abs-Feuchte:Windchill:Wind:
Aussen-T/F 501 29-12-2010 04:12:04 -1.2 C 3.7 g/m*3 -1.2 C 0 km/h
502 29-12-2010 04:24:04 -1.3 C 3.63 g/m*3 -1.3 C 0 km/h
503 29-12-2010 04:36:04 -1.3 C 3.63 g/m*3 -1.3 C 0 km/h
504 29-12-2010 04:48:04 -1.4 C 3.65 g/m*3 -1.4 C 0 km/h
505 29-12-2010 05:00:04 -1.4 C 3.65 g/m*3 -1.4 C 0 km/h
506 29-12-2010 05:12:04 -1.3 C 3.67 g/m*3 -1.3 C 0 km/h
507 29-12-2010 05:24:04 -1.3 C 3.67 g/m*3 -1.3 C 0 km/h
508 29-12-2010 05:36:04 -1.3 C 3.67 g/m*3 -1.3 C 0 km/h
509 29-12-2010 05:48:04 -1.2 C 3.7 g/m*3 -1.2 C 0 km/h
510 29-12-2010 06:00:04 -1.2 C 3.7 g/m*3 -1.2 C 0 km/h
511 29-12-2010 06:12:05 -1.3 C 3.67 g/m*3 -1.3 C 0 km/h
512 29-12-2010 06:24:05 -1.2 C 3.74 g/m*3 -1.2 C 0 km/h
513 29-12-2010 06:36:05 -1.2 C 3.74 g/m*3 -1.2 C 0 km/h
514 29-12-2010 06:48:05 -1.1 C 3.77 g/m*3 -1.1 C 0 km/h
515 29-12-2010 07:00:05 -1.1 C 3.77 g/m*3 -1.1 C 0 km/h
516 29-12-2010 07:12:05 -1.1 C 3.77 g/m*3 -1.1 C 0 km/h
517 29-12-2010 07:24:05 -1.1 C 3.77 g/m*3 -1.1 C 0 km/h
518 29-12-2010 07:36:05 -1.1 C 3.82 g/m*3 -1.1 C 0 km/h
519 29-12-2010 07:48:01 -1.1 C 3.82 g/m*3 -1.1 C 0 km/h
520 29-12-2010 08:00:01 -1.1 C 3.82 g/m*3 -1.1 C 0 km/h
521 29-12-2010 08:12:02 -1.1 C 3.82 g/m*3 -1.1 C 0 km/h
522 29-12-2010 08:24:01 -1.2 C 3.79 g/m*3 -1.2 C 0 km/h
523 29-12-2010 08:36:01 -1.1 C 3.86 g/m*3 -1.1 C 0 km/h
524 29-12-2010 08:48:01 -1 C 3.89 g/m*3 -1 C 0 km/h
525 29-12-2010 09:00:01 -0.9 C 3.91 g/m*3 -0.9 C 0 km/h
Sensor: Nr:Datum:Temp:Abs-Feuchte:Windchill:Wind:
Aussen-T/F 526 29-12-2010 09:12:02 -0.9 C 3.87 g/m*3 -0.9 C 0 km/h
527 29-12-2010 09:24:02 -0.7 C 3.92 g/m*3 -0.7 C 0 km/h
528 29-12-2010 09:36:01 -0.7 C 3.88 g/m*3 -0.7 C 0 km/h
529 29-12-2010 09:48:01 -0.5 C 3.84 g/m*3 -0.5 C 0 km/h
530 29-12-2010 10:00:01 -0.2 C 3.87 g/m*3 -0.2 C 0 km/h
531 29-12-2010 10:12:02 0 C 3.78 g/m*3 0 C 0 km/h
532 29-12-2010 10:24:01 0.2 C 3.73 g/m*3 0.2 C 0 km/h
533 29-12-2010 10:36:01 0.3 C 3.71 g/m*3 0.3 C 0 km/h
534 29-12-2010 10:48:01 0.4 C 3.64 g/m*3 0.4 C 0 km/h
535 29-12-2010 11:00:01 0.4 C 3.64 g/m*3 0.4 C 0 km/h
536 29-12-2010 11:12:02 0.6 C 3.64 g/m*3 0.6 C 0 km/h
537 29-12-2010 11:24:01 0.6 C 3.59 g/m*3 0.6 C 0 km/h
538 29-12-2010 11:36:01 0.7 C 3.61 g/m*3 0.7 C 0 km/h
539 29-12-2010 11:48:01 0.6 C 3.53 g/m*3 0.6 C 0 km/h
540 29-12-2010 12:00:01 0.9 C 3.66 g/m*3 0.9 C 0 km/h
541 29-12-2010 12:12:01 0.9 C 3.61 g/m*3 0.9 C 0 km/h
542 29-12-2010 12:24:02 0.7 C 3.56 g/m*3 0.7 C 0 km/h
543 29-12-2010 12:36:01 1 C 3.53 g/m*3 1 C 0 km/h
544 29-12-2010 12:48:03 0.9 C 3.56 g/m*3 0.9 C 0 km/h
545 29-12-2010 13:00:03 1.3 C 3.66 g/m*3 1.3 C 0 km/h
546 29-12-2010 13:12:02 1.2 C 3.58 g/m*3 1.2 C 0 km/h
547 29-12-2010 13:24:02 1.4 C 3.63 g/m*3 1.4 C 0 km/h
548 29-12-2010 13:36:02 1.5 C 3.6 g/m*3 1.5 C 0 km/h
549 29-12-2010 13:48:02 1.3 C 3.6 g/m*3 1.3 C 0 km/h
550 29-12-2010 14:00:02 1.6 C 3.68 g/m*3 1.6 C 0 km/h
Sensor: Nr:Datum:Temp:Abs-Feuchte:Windchill:Wind:
Aussen-T/F 551 29-12-2010 14:12:01 1.7 C 3.65 g/m*3 1.7 C 0 km/h
552 29-12-2010 14:24:02 1.7 C 3.65 g/m*3 1.7 C 0 km/h
553 29-12-2010 14:36:02 2.1 C 3.69 g/m*3 2.1 C 0 km/h
554 29-12-2010 14:48:01 1.7 C 3.65 g/m*3 1.7 C 0 km/h
555 29-12-2010 15:00:01 1.3 C 3.66 g/m*3 1.3 C 0 km/h
556 29-12-2010 15:12:02 1.3 C 3.71 g/m*3 1.3 C 0 km/h
557 29-12-2010 15:24:01 1.2 C 3.74 g/m*3 1.2 C 0 km/h
558 29-12-2010 15:36:01 1.1 C 3.76 g/m*3 1.1 C 0 km/h
559 29-12-2010 15:48:01 1 C 3.79 g/m*3 1 C 0 km/h
560 29-12-2010 16:00:01 0.8 C 3.84 g/m*3 0.8 C 0 km/h
561 29-12-2010 16:12:02 0.7 C 3.81 g/m*3 0.7 C 0 km/h
562 29-12-2010 16:24:01 0.6 C 3.89 g/m*3 0.6 C 0 km/h
563 29-12-2010 16:36:02 0.5 C 3.86 g/m*3 0.5 C 0 km/h
564 29-12-2010 16:48:01 0.5 C 3.86 g/m*3 0.5 C 0 km/h
565 29-12-2010 17:00:01 0.4 C 3.84 g/m*3 0.4 C 0 km/h
566 29-12-2010 17:12:02 0.3 C 3.81 g/m*3 0.3 C 0 km/h
567 29-12-2010 17:24:01 0.3 C 3.86 g/m*3 0.3 C 0 km/h
568 29-12-2010 17:36:02 0.2 C 3.88 g/m*3 0.2 C 0 km/h
569 29-12-2010 17:48:01 0.2 C 3.88 g/m*3 0.2 C 0 km/h
570 29-12-2010 18:00:01 0.2 C 3.88 g/m*3 0.2 C 0 km/h
571 29-12-2010 18:12:02 0.2 C 3.88 g/m*3 0.2 C 0 km/h
572 29-12-2010 18:24:02 0.1 C 3.85 g/m*3 0.1 C 0 km/h
573 29-12-2010 18:36:01 0.1 C 3.9 g/m*3 0.1 C 0 km/h
574 29-12-2010 18:48:02 0.1 C 3.95 g/m*3 0.1 C 0 km/h
575 29-12-2010 19:00:02 0.1 C 3.95 g/m*3 0.1 C 0 km/h
Sensor: Nr:Datum:Temp:Abs-Feuchte:Windchill:Wind:
Aussen-T/F 576 29-12-2010 19:12:01 0.1 C 3.95 g/m*3 0.1 C 0 km/h
577 29-12-2010 19:24:02 0.1 C 4 g/m*3 0.1 C 0 km/h
578 29-12-2010 19:36:01 0 C 3.97 g/m*3 0 C 0 km/h
579 29-12-2010 19:48:02 0 C 3.97 g/m*3 0 C 0 km/h
580 29-12-2010 20:00:02 0 C 3.97 g/m*3 0 C 0 km/h
581 29-12-2010 20:12:01 0 C 3.97 g/m*3 0 C 0 km/h
582 29-12-2010 20:24:01 0 C 3.97 g/m*3 0 C 0 km/h
583 29-12-2010 20:36:01 -0.1 C 3.95 g/m*3 -0.1 C 0 km/h
584 29-12-2010 20:48:02 -0.1 C 3.95 g/m*3 -0.1 C 0 km/h
585 29-12-2010 21:00:02 -0.1 C 3.95 g/m*3 -0.1 C 0 km/h
586 29-12-2010 21:12:02 -0.2 C 3.92 g/m*3 -0.2 C 0 km/h
587 29-12-2010 21:24:02 -0.2 C 3.92 g/m*3 -0.2 C 0 km/h
588 29-12-2010 21:36:02 -0.2 C 3.92 g/m*3 -0.2 C 0 km/h
589 29-12-2010 21:48:01 -0.2 C 3.92 g/m*3 -0.2 C 0 km/h
590 29-12-2010 22:00:01 -0.2 C 3.92 g/m*3 -0.2 C 0 km/h
591 29-12-2010 22:12:02 -0.3 C 3.89 g/m*3 -0.3 C 0 km/h
592 29-12-2010 22:24:01 -0.3 C 3.84 g/m*3 -0.3 C 0 km/h
593 29-12-2010 22:36:01 -0.3 C 3.8 g/m*3 -0.3 C 0 km/h
594 29-12-2010 22:48:01 -0.5 C 3.74 g/m*3 -0.5 C 0 km/h
595 29-12-2010 23:00:01 -0.6 C 3.76 g/m*3 -0.6 C 0 km/h
596 29-12-2010 23:12:02 -0.6 C 3.81 g/m*3 -0.6 C 0 km/h
597 29-12-2010 23:24:02 -0.7 C 3.78 g/m*3 -0.7 C 0 km/h
598 29-12-2010 23:36:01 -0.7 C 3.83 g/m*3 -0.7 C 0 km/h
599 29-12-2010 23:49:59 -0.9 C 3.78 g/m*3 -0.9 C 0 km/h

Legende:
   Min
   Max


Maximal/Minimal-Werte vom 25.12.2010 - 29.12.2010

Sensor Min Max Avg
Temp
(Aussen-T/F)
-9.2 °C
25-12-2010  20:32:02
2.1 °C
29-12-2010  14:36:02
-2.98 °C
Abs-Feuchte
(Aussen-T/F)
1.81 g/m*3
26-12-2010  03:21:04
4 g/m*3
29-12-2010  19:24:02
3.07 g/m*3
Windchill
(Aussen-T/F)
-9.2 C
25-12-2010  20:32:02
2.1 C
29-12-2010  14:36:02
-2.98 C

Die Daten stammen von einer Davis Vantage Pro 2 Wetter-Station und werden unter Linux mit der Software wview2wettercgi und aufbereitet. Alle Angaben erfolgen ohne Gewähr für ihre Vollständigkeit oder Richtigkeit.
Kontakt: Rainer Krienke krienke@uni-koblenz.de . Meine Webseiten an der Uni Koblenz oder privat.
Version: $Revision: 0.78 $